GFSMA_sfc_wetblb_000.txt.gz
Wetbulb
50.43 51.31 51.14 51.64 52.13 53.09 53.39 53.13 53.49 54.77 56.42 57.92 64.26 67.54 67.81 68.56 68.25 68.57 68.54 70.93 71.40 71.25 70.85 71.19 71.63 69.65 68.82 68.17 68.32 68.21 67.93 66.97 66.41 66.85 65.99 66.53 65.87 64.76 63.66 63.28 62.45 62.12 61.91
50.07 50.34 50.39 50.44 50.66 51.27 51.77 52.46 53.13 53.63 54.61 56.60 57.80 64.25 67.14 66.87 67.65 68.21 67.86 68.37 70.72 70.90 70.65 70.80 71.69 70.24 69.12 68.47 68.11 68.91 68.08 66.36 66.51 66.61 66.63 65.88 65.44 65.04 64.39 63.04 62.48 62.13 61.87
50.23 49.51 49.68 49.42 49.90 50.35 51.28 51.49 51.97 53.08 54.04 55.97 56.55 58.47 63.54 65.97 66.48 67.20 68.12 68.05 67.99 69.78 70.24 70.94 71.87 70.90 69.68 68.74 68.13 68.83 68.02 66.90 66.68 66.29 67.01 65.53 65.25 64.80 64.63 63.34 62.71 62.65 62.15
50.07 49.05 49.46 49.32 49.66 50.05 50.49 50.30 50.14 50.95 51.65 52.86 54.13 56.64 59.21 64.36 65.11 66.34 67.18 68.35 67.15 66.74 68.64 69.92 71.13 71.46 70.41 69.25 68.75 69.10 68.26 67.75 66.36 66.63 66.60 65.63 65.07 64.63 64.86 64.34 63.12 62.64 62.57
50.30 48.39 49.06 48.99 49.08 48.94 48.85 49.35 48.97 48.88 48.88 50.03 51.54 52.55 53.68 57.88 64.81 65.84 65.52 66.21 67.45 66.97 65.91 68.40 69.62 70.04 71.29 69.81 69.30 69.57 68.71 67.24 67.01 66.35 65.98 65.80 65.35 64.77 64.50 64.37 63.72 63.12 62.90
48.84 48.32 48.80 48.40 48.72 47.77 47.36 47.44 46.96 48.10 48.78 49.98 52.07 52.49 53.38 55.29 57.89 62.89 64.59 65.53 66.19 66.86 65.98 65.10 66.41 67.39 70.19 70.68 69.87 69.56 68.40 67.99 67.22 66.46 66.06 65.96 65.60 65.04 64.59 64.32 63.84 63.44 62.80
48.10 47.27 47.57 47.64 47.62 46.77 46.25 46.98 46.69 46.43 46.70 48.25 48.53 49.05 50.92 52.66 53.42 56.74 62.44 64.64 65.14 66.14 66.14 65.22 64.92 64.90 67.10 69.71 69.21 69.96 69.54 68.67 67.66 66.81 66.25 66.43 65.91 65.59 65.05 64.13 63.41 63.27 63.03
46.98 47.32 45.76 46.08 46.14 45.62 45.51 45.76 45.55 44.70 45.67 46.97 44.77 45.16 43.12 46.74 50.61 53.47 57.82 62.16 63.73 65.10 65.04 65.34 64.78 63.73 63.55 66.36 66.35 68.18 68.37 68.48 68.09 67.20 66.82 66.87 66.38 65.82 65.40 64.52 63.90 63.85 63.16
46.40 46.14 45.67 45.01 44.56 44.49 43.98 44.30 44.59 44.04 43.09 44.84 45.35 44.76 41.59 40.89 45.25 48.88 51.20 52.78 60.71 62.68 63.98 64.40 64.51 63.84 63.83 65.13 66.01 66.33 65.95 67.82 68.59 67.84 67.57 67.05 66.71 66.25 65.97 65.28 64.55 64.24 63.39
45.33 45.90 45.50 44.95 44.37 43.98 43.05 43.31 45.80 43.55 42.96 42.43 44.25 47.19 45.72 45.77 42.76 42.67 49.01 51.21 53.50 60.45 62.01 63.47 64.15 64.37 64.48 64.75 65.28 65.31 65.80 66.70 67.70 68.29 67.74 67.34 66.80 66.35 66.39 66.26 65.53 64.13 63.88
45.08 45.58 45.00 44.36 43.88 43.74 43.57 43.65 43.63 43.34 44.05 43.33 43.49 43.65 43.63 44.51 45.71 45.03 43.73 46.80 50.57 55.55 61.25 62.39 63.51 63.64 64.51 63.86 63.83 64.36 65.77 66.04 66.69 67.39 68.01 67.52 66.78 66.49 66.69 67.04 65.78 64.34 63.44
43.57 44.72 45.35 44.03 43.91 43.67 43.73 43.61 43.95 43.71 44.04 44.34 43.92 44.49 43.51 42.43 43.01 44.51 44.62 45.70 46.64 49.10 53.17 61.46 62.20 62.93 63.76 63.12 63.80 64.04 65.32 65.47 66.19 66.71 66.83 67.02 66.94 66.63 66.50 66.40 65.33 64.31 63.10
41.78 42.61 43.79 43.32 43.12 43.35 43.57 43.67 42.99 43.44 43.96 43.96 43.99 44.43 44.35 43.87 44.81 46.13 45.72 45.08 45.87 47.57 49.57 60.26 61.31 62.67 62.79 62.76 62.51 63.30 64.29 64.85 65.44 65.82 65.85 66.11 66.38 66.86 65.95 65.74 64.97 64.12 62.79
41.80 43.60 43.58 43.83 43.51 44.20 43.76 43.05 43.12 43.47 44.18 44.49 43.95 44.18 43.96 43.92 45.32 46.55 45.30 44.80 44.44 44.97 46.32 50.90 60.31 61.21 61.87 62.01 62.33 63.74 63.25 64.36 64.70 64.85 64.97 65.02 65.43 65.97 65.86 65.98 64.85 63.28 61.62
44.54 43.93 43.60 43.18 43.49 43.48 43.42 43.06 42.68 42.78 44.34 44.76 43.98 44.27 44.55 45.35 46.78 46.80 46.78 47.22 46.17 42.41 43.38 49.89 57.26 60.22 60.88 61.96 62.17 62.62 62.29 63.66 64.44 63.96 63.50 63.50 64.51 65.09 65.13 65.17 63.18 61.47 61.30
43.08 43.15 43.00 42.97 42.83 43.03 42.72 42.40 42.42 42.98 43.63 43.04 43.57 44.04 44.57 44.48 45.03 46.09 47.53 48.77 49.70 46.94 43.94 51.70 56.66 59.14 60.05 61.00 62.07 60.72 61.14 62.65 63.58 63.55 62.00 61.54 63.36 63.50 63.80 63.00 61.54 61.23 59.59
42.49 42.51 42.82 42.95 42.90 42.25 42.52 41.53 41.47 42.78 42.99 43.58 43.53 43.97 44.31 44.93 44.43 46.04 48.53 50.32 50.35 49.73 46.49 51.61 53.32 57.26 58.75 58.94 59.24 59.02 60.34 61.10 61.92 63.07 62.05 61.19 61.74 62.03 62.08 61.03 60.33 59.95 58.49
42.15 42.39 42.64 42.82 42.95 42.38 41.72 40.99 41.69 43.39 42.70 42.98 44.12 44.52 44.38 46.42 46.91 47.67 50.36 49.92 50.45 51.07 51.48 49.43 52.77 54.28 57.53 58.12 57.30 56.01 58.62 59.95 60.30 62.87 62.45 61.52 60.87 60.76 60.23 59.55 59.13 58.23 57.64
41.90 42.26 42.75 41.72 42.38 42.75 42.44 42.16 42.19 42.90 43.13 44.06 45.04 44.48 46.69 47.13 48.09 48.71 49.48 50.74 51.57 52.69 53.14 51.90 51.91 55.50 57.41 56.82 55.17 55.69 56.72 57.52 59.29 61.72 62.14 61.28 60.67 60.08 59.31 58.59 57.69 57.09 56.34
41.56 41.24 42.02 42.50 42.91 43.15 42.95 42.70 42.60 42.33 44.15 44.91 45.55 46.26 45.79 46.88 47.94 49.88 50.34 50.77 52.18 52.78 52.65 51.73 50.94 55.73 55.64 55.74 55.45 53.87 53.72 57.02 56.63 60.56 60.57 59.83 60.49 59.89 59.05 58.33 57.38 56.21 54.72
41.36 41.88 42.38 42.62 42.42 42.84 43.49 41.91 42.85 43.04 43.75 44.44 45.75 45.17 46.92 49.32 51.99 53.34 53.74 52.30 53.04 52.40 52.00 51.57 51.10 55.40 54.12 54.06 53.19 54.97 54.32 56.93 57.34 58.04 56.96 57.02 56.92 56.81 57.29 58.25 56.35 55.52 54.13
40.40 41.34 41.22 41.75 41.68 43.34 47.62 49.13 47.31 43.63 44.21 44.48 44.15 44.60 46.77 49.27 50.09 53.19 55.58 56.73 55.09 52.30 51.46 51.38 51.45 53.96 54.14 54.59 54.88 55.37 55.18 55.76 54.01 57.88 55.27 54.37 55.15 53.67 55.09 54.24 55.76 55.39 54.22
39.37 39.64 40.54 40.72 40.75 41.26 47.25 47.96 48.95 44.42 43.34 44.26 44.62 44.86 46.41 48.20 50.10 49.84 54.21 56.69 57.62 57.06 55.50 52.61 53.14 55.63 54.81 56.27 55.69 56.22 55.77 56.06 54.73 56.73 54.89 52.11 53.04 51.15 53.69 54.31 55.59 55.05 54.37
38.94 39.28 40.13 40.69 40.27 41.81 47.29 47.77 47.95 43.68 42.73 44.60 45.13 45.83 46.96 47.26 48.64 50.30 52.52 54.58 55.33 55.96 56.64 56.05 53.83 55.73 57.73 58.67 57.48 58.31 57.49 57.30 57.18 56.59 55.51 50.63 51.53 49.60 51.74 51.89 54.91 54.65 54.11
38.49 39.43 40.52 40.36 40.18 40.81 46.93 47.65 47.22 41.96 42.60 43.76 45.50 47.03 47.45 47.40 50.20 52.05 51.56 52.00 54.19 55.34 58.46 58.23 57.17 57.14 59.55 59.38 59.20 58.92 57.05 56.41 54.87 54.69 55.01 51.75 51.08 50.09 49.15 48.98 52.61 53.86 53.36
39.47 40.70 40.89 41.03 44.04 40.88 45.91 47.35 47.38 42.65 41.45 43.03 44.92 45.83 48.09 48.07 50.51 51.83 51.16 52.29 53.19 55.08 56.16 56.43 56.57 57.34 59.72 59.66 59.58 59.73 58.59 55.57 54.91 53.43 54.42 51.17 51.44 50.94 47.10 48.16 50.03 51.64 51.18

GFSMA_sfc_wetblb_003.txt.gz
Wetbulb
47.54 48.59 48.70 49.18 49.55 50.15 50.12 50.14 50.32 51.64 52.32 54.02 55.04 57.92 62.03 66.59 68.12 69.38 69.90 71.17 72.04 72.32 72.39 72.10 72.40 72.05 70.14 69.26 69.09 69.57 69.48 68.63 67.54 67.45 66.86 66.86 67.21 65.67 64.60 64.38 63.47 62.82 62.68
47.48 47.95 48.41 48.71 48.83 48.72 49.64 49.84 49.72 50.09 51.27 52.03 53.77 55.33 57.27 62.48 66.75 67.69 68.26 68.48 70.86 71.81 71.98 71.76 72.61 72.10 70.79 69.39 69.74 69.57 69.41 68.86 68.09 67.11 67.09 66.99 66.98 65.90 64.89 63.99 63.47 62.96 62.64
47.36 47.03 47.93 48.03 48.12 48.52 49.56 49.49 49.22 49.51 49.56 51.03 49.86 51.67 52.56 56.21 61.18 65.25 66.86 67.76 68.68 69.72 70.73 71.44 71.86 72.26 71.32 69.95 69.44 69.74 70.00 69.56 67.47 67.54 67.84 66.74 66.42 65.81 65.17 64.07 63.48 63.19 62.74
47.71 46.69 47.39 47.37 47.72 48.28 48.70 48.24 47.54 47.50 47.31 47.36 47.91 49.63 50.32 52.31 53.58 58.08 64.48 66.77 67.79 68.49 68.95 69.85 70.81 71.74 71.65 70.39 69.99 70.44 69.87 69.73 67.95 67.20 67.59 66.93 66.27 65.72 65.27 64.73 63.88 63.43 62.86
48.33 46.12 46.93 46.80 47.28 46.90 46.50 46.71 46.62 46.27 46.32 46.99 48.57 49.47 50.35 51.73 53.43 56.45 58.77 63.51 66.11 66.95 67.27 68.25 69.69 70.16 71.27 71.02 70.39 69.88 70.00 69.01 68.50 67.69 67.48 67.19 66.25 65.59 65.35 65.29 64.48 63.63 63.20
46.71 45.45 46.17 46.41 46.35 45.78 45.56 45.48 44.67 45.88 45.40 46.13 49.38 48.47 47.87 49.69 49.12 51.19 53.76 56.89 59.87 64.98 66.68 66.40 66.89 67.93 70.17 70.89 70.92 70.08 69.93 69.28 68.38 68.78 67.47 67.14 66.70 65.74 65.52 65.16 64.88 64.08 63.73
46.11 44.65 44.84 45.42 45.52 44.81 44.22 44.93 44.64 43.84 43.82 45.32 44.59 45.15 44.67 46.33 46.37 47.83 51.78 50.76 53.59 60.22 64.77 66.17 65.56 66.43 67.43 69.54 69.86 70.64 70.39 70.18 68.06 67.81 67.18 67.01 66.59 66.28 65.63 65.45 64.88 64.34 63.76
44.94 45.15 43.72 44.05 44.05 43.39 43.17 42.95 43.29 42.05 43.19 43.98 42.78 42.24 39.56 42.08 44.17 47.09 47.55 48.37 50.51 54.27 55.72 63.83 65.30 64.99 65.35 66.43 67.37 68.42 68.66 70.46 69.12 68.02 67.53 67.24 66.79 66.50 65.89 65.36 64.77 64.18 63.85
44.51 44.21 43.51 43.01 42.77 42.43 41.89 41.99 42.01 41.68 40.50 41.74 42.45 42.26 38.58 36.48 41.83 44.96 44.99 46.04 48.87 52.13 54.94 56.67 63.82 64.76 64.77 64.78 67.20 66.72 66.77 68.68 69.69 69.06 67.93 67.20 67.62 67.09 66.43 65.68 65.10 64.70 63.94
43.32 43.89 43.61 42.86 42.21 41.98 41.59 41.60 44.47 41.88 41.08 40.13 41.27 44.15 43.40 43.55 39.61 37.73 42.71 44.16 46.80 50.63 51.20 54.30 55.26 63.11 63.92 63.77 65.76 66.27 66.72 67.23 67.96 69.21 68.69 67.62 68.06 67.58 67.39 66.47 65.30 65.00 64.36
42.87 43.69 43.26 42.29 41.96 41.71 41.92 41.83 42.05 41.62 41.44 40.30 40.18 41.03 42.22 41.90 41.90 40.67 38.45 40.38 43.75 47.99 50.90 51.45 51.98 52.04 62.55 63.66 63.89 65.82 66.45 66.84 66.89 68.00 68.61 68.47 68.08 67.63 67.58 67.33 66.23 65.37 64.52
41.55 42.48 43.33 42.21 41.82 41.52 41.46 42.09 42.02 41.20 41.28 41.60 41.76 41.92 41.84 40.75 40.83 41.16 40.61 40.00 39.96 44.34 49.13 50.41 51.48 52.82 54.01 63.31 64.74 65.06 66.19 66.33 66.40 67.00 67.23 68.12 68.45 67.83 67.99 67.98 67.45 65.62 64.41
39.81 40.73 41.37 41.84 41.44 41.69 41.85 41.46 40.94 40.89 40.77 40.94 41.56 42.30 43.49 44.82 45.35 43.30 42.51 39.88 39.68 43.36 46.94 48.90 50.95 51.51 53.52 59.65 64.52 64.39 65.06 65.90 66.07 66.66 66.59 66.90 67.35 67.48 68.30 67.89 67.27 65.57 64.82
39.89 41.17 41.88 42.16 42.50 42.34 42.00 41.57 40.61 40.84 40.81 41.06 41.33 43.02 44.21 44.19 44.04 43.45 42.32 41.41 39.75 41.65 44.43 44.87 49.79 50.81 51.61 53.28 64.39 64.40 64.37 65.35 65.67 65.88 66.17 66.03 66.11 66.83 67.42 67.57 66.78 65.34 64.11
42.48 42.11 42.25 41.72 42.12 42.03 42.06 41.55 40.90 40.27 40.90 41.69 43.50 43.48 43.13 43.58 44.74 45.69 45.39 44.45 42.44 38.98 40.00 44.69 46.96 50.85 53.17 55.20 63.00 64.24 63.72 64.59 65.42 65.12 65.04 65.09 65.23 66.21 65.73 66.41 66.09 65.08 63.22
40.73 41.28 41.76 41.65 41.64 41.67 41.56 40.91 40.41 40.68 40.81 42.60 43.45 43.18 43.03 44.18 44.87 45.72 45.33 44.54 44.40 42.97 40.35 46.54 48.73 50.11 53.56 57.30 63.27 63.65 62.98 63.45 64.63 64.82 63.83 63.34 64.19 65.19 65.15 64.95 64.13 63.05 62.66
40.53 41.00 41.46 41.40 41.25 41.17 40.84 39.96 39.45 40.05 40.44 41.34 42.48 43.53 43.81 44.77 45.34 45.04 45.80 46.07 45.01 45.24 43.34 46.09 49.96 50.86 51.50 53.07 61.05 62.68 62.12 62.69 63.48 64.31 63.52 62.70 63.02 63.58 63.66 62.56 61.70 61.86 60.46
40.39 40.62 41.04 41.01 41.38 41.31 40.48 39.60 40.13 41.15 40.66 40.90 42.35 42.71 43.82 45.48 45.00 45.91 45.48 45.79 46.48 47.19 47.57 46.59 49.71 50.85 52.55 54.31 59.07 60.67 61.34 62.33 62.34 63.62 63.15 62.66 62.13 61.95 61.22 60.45 60.34 59.56 58.81
39.75 40.30 40.94 40.06 40.33 41.39 41.10 40.89 41.10 41.28 41.11 41.46 42.23 42.46 44.07 44.79 44.33 44.74 46.20 47.48 48.74 50.70 50.12 48.95 48.33 50.27 53.53 54.93 58.59 59.40 60.43 60.48 61.50 62.20 62.43 62.18 61.65 61.12 60.07 59.37 58.47 57.64 57.17
39.28 39.49 39.45 40.18 40.87 41.57 41.75 41.55 41.63 40.95 40.97 42.26 43.35 44.09 44.84 45.40 44.27 45.42 47.82 48.89 49.94 49.58 50.37 50.02 49.49 49.89 52.55 54.59 57.53 56.88 57.15 58.61 58.99 61.02 61.02 60.71 61.58 60.73 59.72 59.04 57.89 56.68 55.25
39.94 39.46 39.55 40.15 40.72 41.03 42.53 41.43 41.84 41.48 41.36 41.78 43.16 44.52 45.98 47.25 49.48 50.26 50.10 50.14 51.45 50.11 49.69 49.88 50.18 51.42 51.43 51.45 54.59 56.46 55.08 55.89 57.23 59.61 59.00 58.60 58.82 58.28 58.20 58.93 56.84 55.78 54.35
38.01 38.79 38.65 39.07 39.56 41.95 46.62 47.99 47.26 43.24 43.32 43.17 42.04 43.32 45.39 47.42 47.81 51.34 51.57 53.11 53.46 51.21 50.64 51.13 51.02 50.64 51.36 54.06 55.44 54.65 54.53 53.50 53.52 59.04 57.40 56.56 57.25 55.49 56.04 55.30 56.29 55.55 54.26
36.93 37.09 37.49 38.00 38.37 39.86 46.64 48.02 48.34 44.79 42.30 42.05 41.65 43.13 44.26 46.19 47.51 46.91 50.30 52.78 53.38 55.95 54.99 53.08 51.42 51.22 51.54 53.76 55.03 53.63 54.48 53.84 53.41 56.42 55.59 53.96 55.10 53.55 54.79 54.69 55.89 55.19 54.18
36.62 36.59 37.00 37.72 38.31 40.00 47.11 47.87 47.95 44.40 43.63 41.40 42.32 43.33 44.53 45.85 45.18 47.13 48.89 49.61 50.80 53.02 55.43 55.32 53.63 53.24 52.49 56.11 56.49 55.44 55.70 54.87 54.96 56.26 55.27 50.72 52.68 49.65 52.38 52.31 55.25 54.74 53.78
36.12 36.17 37.28 37.06 37.13 38.87 46.04 47.04 45.44 42.44 41.85 41.30 42.82 44.48 45.10 44.58 47.05 50.16 49.08 48.94 49.76 51.57 55.93 57.84 56.37 55.72 55.64 56.34 57.62 56.42 55.08 53.65 52.83 52.88 53.48 51.24 50.43 47.29 47.61 49.04 53.34 54.04 52.83
36.82 37.55 37.33 37.88 41.15 39.38 43.35 45.73 44.10 41.33 40.25 40.89 44.38 44.19 46.05 45.66 48.67 50.09 49.07 49.42 49.76 52.05 55.50 55.80 56.29 56.05 56.44 56.41 58.52 57.53 56.84 54.13 52.64 51.06 52.44 49.68 49.55 48.57 45.79 46.65 49.08 51.90 50.56

GFSMA_sfc_wetblb_006.txt.gz
Wetbulb
45.49 46.57 46.82 47.41 47.23 47.54 47.80 47.93 48.13 48.55 48.72 49.79 50.00 50.81 51.85 53.18 57.36 61.66 65.95 69.90 71.44 71.68 71.86 72.75 72.90 72.17 71.36 69.78 70.15 69.63 69.47 68.45 67.89 67.65 67.69 67.18 67.08 66.67 65.98 64.86 64.01 63.61 63.65
45.30 46.08 46.64 46.98 46.78 46.73 47.59 47.45 46.65 46.79 46.79 47.66 48.48 48.93 48.43 50.02 52.99 55.11 58.66 62.40 66.91 69.90 70.78 71.53 72.58 72.59 72.10 70.98 70.30 70.65 70.35 69.80 69.03 67.81 67.62 67.53 67.85 66.99 65.69 65.07 64.30 63.51 63.59
45.59 45.62 46.18 46.00 45.62 46.26 47.33 47.03 46.42 46.72 46.60 48.06 46.19 47.87 49.34 49.03 50.80 52.74 55.43 58.76 63.09 66.85 68.87 69.60 70.89 71.78 71.93 71.67 70.49 70.79 70.76 69.71 69.07 67.97 67.38 67.25 67.97 67.03 65.78 64.85 64.31 63.88 63.62
46.18 45.26 45.86 45.44 45.98 46.33 46.55 45.60 45.46 45.27 44.82 44.89 44.37 45.69 46.35 48.96 49.22 48.21 50.28 53.14 55.59 58.08 62.61 67.28 69.28 70.89 71.43 71.33 71.09 70.89 70.75 70.51 69.28 68.34 67.58 67.73 67.70 66.54 66.26 65.15 64.29 64.05 63.79
46.89 44.41 45.04 44.92 45.72 45.23 45.00 45.07 44.57 44.73 43.34 44.11 45.73 45.04 45.48 46.93 46.88 47.80 48.06 50.84 52.16 52.68 56.09 62.18 66.27 68.94 70.01 70.86 71.09 70.74 70.94 70.45 69.88 68.89 68.44 68.71 67.61 66.26 66.31 65.89 64.63 64.25 63.91
45.55 43.56 43.71 44.13 44.88 44.28 43.60 43.88 42.66 43.89 43.13 43.29 46.62 46.18 44.73 44.99 44.04 44.90 44.19 48.16 48.10 49.11 51.34 53.11 55.72 64.35 68.58 69.42 70.82 71.11 70.81 69.94 70.11 69.09 68.58 68.23 67.51 66.52 65.95 66.68 65.68 64.57 64.08
44.74 42.81 42.91 43.38 43.88 43.20 42.53 43.08 42.60 42.23 41.66 42.81 41.49 40.69 41.33 41.48 41.28 42.38 45.86 46.26 45.83 46.90 49.83 54.05 54.92 57.58 64.92 68.74 69.15 70.55 71.07 70.18 70.14 69.04 67.78 67.66 67.61 66.77 65.96 65.95 65.71 65.05 64.27
43.92 43.47 42.41 42.20 42.76 41.77 41.52 40.95 41.14 40.07 41.36 41.78 39.33 38.51 35.60 38.50 39.72 42.95 43.39 43.99 43.93 46.16 47.15 49.50 53.76 55.09 54.65 65.18 65.70 67.82 68.39 71.02 70.55 69.71 68.06 67.78 67.89 67.20 66.45 66.06 65.44 65.20 64.55
43.52 42.70 41.75 41.69 40.93 40.82 40.38 40.09 40.24 39.55 38.42 40.05 40.59 39.42 35.10 33.28 38.93 40.38 41.63 42.06 42.19 44.28 45.45 49.11 53.67 53.88 52.99 51.84 64.82 66.29 66.45 68.33 70.34 70.60 68.52 67.84 67.95 67.73 66.90 66.16 65.62 65.21 64.63
41.78 42.56 42.32 41.15 40.57 40.20 39.77 39.99 42.98 40.24 39.33 38.54 39.14 42.87 41.13 40.29 37.23 36.68 41.31 42.20 43.66 43.72 43.83 45.21 48.20 52.48 52.47 52.34 53.70 65.64 66.55 67.03 67.91 69.79 69.64 68.25 68.14 68.10 67.35 66.46 65.78 65.10 64.91
41.43 42.29 41.74 40.87 40.34 40.04 40.13 39.86 39.93 39.78 39.38 38.32 38.23 38.69 39.14 40.38 39.70 38.32 36.45 39.66 43.04 43.93 44.33 44.37 45.92 50.63 52.64 52.66 53.25 54.64 66.31 66.56 67.03 67.95 68.84 69.02 68.34 68.47 68.01 67.06 66.22 65.31 65.13
40.34 41.15 41.90 40.71 40.39 40.07 39.76 40.57 40.01 39.06 38.82 39.03 39.72 39.73 39.72 38.88 38.38 38.58 39.16 39.70 39.99 41.80 43.32 43.69 45.55 49.83 51.48 52.25 53.13 54.82 56.03 66.43 66.64 67.12 67.57 68.01 68.65 68.75 68.48 67.94 67.13 66.07 65.71
38.83 39.63 40.00 40.12 40.14 40.39 40.89 40.36 39.24 38.86 39.08 38.68 38.61 39.63 40.26 40.83 42.17 43.75 41.92 38.77 38.56 41.42 42.56 44.82 45.41 48.30 50.98 51.95 52.13 53.72 54.56 64.44 66.10 66.65 66.83 67.16 67.65 68.06 68.37 67.83 67.35 66.75 65.83
38.96 39.91 40.16 40.33 40.87 41.23 41.03 40.13 39.28 39.48 39.08 39.10 38.83 39.50 40.85 41.80 43.94 43.84 41.42 40.57 38.06 40.48 41.87 41.48 45.83 46.29 49.42 51.65 52.44 55.38 54.28 59.49 65.29 65.87 66.33 66.31 66.62 66.91 67.56 67.87 68.03 67.14 65.63
40.79 40.24 40.43 40.26 40.60 40.61 40.68 40.07 39.21 39.03 39.28 39.42 39.66 40.17 40.85 42.87 43.44 43.71 44.07 43.19 41.29 37.53 38.05 41.52 43.41 45.64 50.06 52.27 53.69 53.95 55.03 57.74 65.07 65.12 65.18 65.26 65.78 66.31 66.91 67.55 67.51 66.39 65.46
39.62 39.89 39.60 39.90 40.38 40.34 40.15 39.39 38.82 39.48 39.13 39.81 40.71 40.79 41.76 42.84 42.73 44.02 44.52 44.70 44.31 41.89 38.37 41.83 42.68 45.02 48.85 52.58 52.80 53.18 54.18 57.50 64.29 65.02 64.32 63.75 64.69 65.32 65.93 66.28 65.59 65.00 64.14
38.77 39.08 39.98 40.06 39.85 39.58 39.50 38.52 38.21 38.82 38.55 39.30 40.18 40.59 41.24 42.40 42.57 43.65 45.10 44.79 44.05 43.49 40.66 43.30 45.04 47.04 48.51 50.08 51.58 53.01 54.38 59.04 63.73 64.96 64.39 63.33 63.37 64.02 64.43 64.38 63.82 63.38 62.84
38.96 39.15 39.51 39.43 39.54 39.56 39.06 38.06 38.14 39.35 39.06 39.04 39.73 40.12 40.78 43.31 42.30 43.71 44.80 44.75 43.95 44.53 43.61 42.71 45.11 46.46 49.06 50.93 51.38 53.16 54.98 62.61 63.39 64.47 64.34 63.45 62.74 62.72 62.79 62.35 61.59 61.58 60.44
38.19 38.63 39.01 38.81 39.10 39.21 38.92 38.82 38.86 39.55 39.72 39.81 40.08 40.21 41.01 41.72 41.57 43.21 44.78 44.11 45.21 46.28 46.40 45.73 45.58 49.62 49.72 50.16 50.31 53.37 54.25 62.25 63.16 63.33 63.76 63.13 62.57 62.25 61.55 60.41 59.82 58.84 58.08
37.63 37.69 38.14 38.55 39.15 39.49 39.64 39.61 39.84 39.46 39.64 40.74 41.13 41.76 42.22 42.54 42.85 44.29 45.51 45.45 46.44 48.05 48.73 48.02 47.40 48.64 49.33 50.08 51.44 52.66 55.35 60.97 61.01 62.77 62.82 62.54 62.77 61.76 60.70 60.00 58.87 57.25 55.97
37.74 37.62 37.82 38.52 38.70 39.26 41.11 39.67 40.56 40.37 40.38 40.61 41.74 42.27 43.26 45.09 49.02 48.41 46.39 46.49 46.40 47.71 49.14 48.49 48.70 48.74 48.57 48.34 48.95 52.06 57.06 59.48 60.48 61.12 60.46 61.01 61.17 60.25 59.67 59.77 57.51 56.18 54.97
36.53 37.06 37.14 37.18 37.39 40.40 45.27 47.01 46.64 42.73 41.73 41.75 41.52 42.76 42.71 45.85 46.20 49.26 49.47 49.73 49.53 49.26 49.77 49.03 48.46 47.82 48.17 50.22 52.12 51.66 56.07 57.20 55.99 60.58 58.74 58.53 59.84 58.43 57.61 56.80 56.85 55.85 54.82
35.46 35.64 35.83 36.43 36.43 36.92 45.35 47.31 47.49 43.48 43.36 42.47 43.04 41.75 41.71 44.17 46.13 45.83 47.51 48.91 50.67 52.04 53.08 52.00 49.67 50.35 50.55 52.09 52.84 52.62 55.84 56.95 56.28 58.26 57.91 55.46 57.74 55.85 55.75 55.31 56.00 55.25 54.69
35.10 35.16 35.78 36.14 35.82 37.90 45.79 47.05 46.92 40.17 39.24 40.29 40.98 41.33 41.68 43.05 45.06 45.24 45.08 47.32 48.05 49.41 51.07 53.41 52.26 53.38 53.80 54.25 53.90 56.95 57.39 57.43 57.21 58.27 58.43 53.51 55.61 53.79 52.74 53.40 55.23 54.59 53.95
34.80 34.98 35.79 35.54 34.74 35.60 44.53 46.32 44.61 39.02 38.87 39.18 40.80 41.63 42.87 42.97 46.21 47.91 46.60 46.60 47.68 49.71 53.51 55.23 56.11 56.03 56.13 55.62 55.52 56.33 55.49 53.84 53.73 55.06 56.62 53.10 53.16 50.00 49.84 52.60 53.58 53.73 52.84
35.56 36.50 36.04 35.33 38.66 37.57 42.66 45.09 44.10 40.33 39.08 40.49 42.21 41.82 44.73 44.27 46.77 48.46 46.92 47.19 46.99 48.71 52.65 54.53 55.28 55.30 56.00 55.75 56.61 56.52 56.25 53.78 53.56 52.25 53.59 51.63 50.85 49.30 47.41 49.10 51.72 51.52 50.34

GFSMA_sfc_wetblb_012.txt.gz
Wetbulb
44.36 44.98 44.38 44.26 44.35 44.84 44.37 43.75 43.94 43.65 43.82 44.34 45.02 45.18 44.73 45.48 46.36 48.52 50.27 57.16 58.27 59.03 60.76 62.00 63.70 65.23 66.84 68.61 71.34 71.40 71.39 70.86 69.54 69.45 69.36 68.92 67.69 68.21 66.46 66.02 65.85 64.98 64.83
44.41 44.66 44.09 43.94 43.64 44.08 43.83 43.40 43.33 42.50 42.50 42.61 43.27 44.20 44.12 44.16 44.09 44.61 47.10 49.90 54.11 54.89 56.22 58.10 60.17 62.12 64.01 65.45 67.17 69.36 71.39 71.31 70.92 70.52 70.00 68.74 68.25 67.82 67.35 67.17 66.01 65.45 64.70
44.52 44.12 43.66 43.04 42.93 43.89 44.09 43.68 42.87 42.71 41.89 43.39 41.46 41.93 43.09 43.34 43.17 43.17 45.66 48.16 47.21 51.12 52.74 54.94 56.76 58.18 60.04 62.39 64.62 66.54 68.52 71.21 71.21 70.86 70.21 69.12 68.77 68.29 67.89 67.58 66.41 65.18 64.78
44.46 43.61 43.24 43.19 43.69 43.99 43.61 43.36 42.27 42.35 40.93 40.81 40.56 40.74 40.69 41.97 42.17 41.30 43.32 45.93 45.50 46.24 47.68 52.98 54.44 55.32 56.91 59.77 62.32 64.02 65.97 68.37 71.12 70.95 70.46 69.73 69.01 68.73 68.21 67.89 66.79 65.95 64.82
44.53 43.17 42.66 42.45 43.80 43.11 42.20 43.08 41.22 41.86 40.08 39.97 42.72 41.48 40.19 40.27 41.14 43.11 40.16 42.77 44.67 44.77 44.59 49.97 52.08 52.52 54.78 57.19 60.39 62.37 62.73 64.67 68.68 70.75 70.67 70.02 69.71 69.24 68.64 67.93 66.98 66.00 65.23
43.66 42.03 41.85 42.31 42.86 42.32 41.09 41.23 40.04 40.82 40.42 39.69 43.47 41.81 39.42 39.39 40.37 40.07 40.03 42.83 43.98 44.06 44.17 47.04 45.02 47.14 52.60 54.47 56.16 57.36 59.65 61.59 63.38 66.69 70.56 70.15 69.90 69.45 68.45 68.19 67.20 66.09 65.15
43.14 41.13 40.92 41.45 42.09 41.44 40.25 40.87 40.08 39.55 38.99 39.60 38.40 38.18 37.83 38.54 38.28 38.92 38.83 41.01 42.93 43.25 42.78 44.78 44.73 46.63 46.45 51.47 52.73 55.11 57.23 59.26 60.30 63.15 68.87 69.94 70.03 69.62 68.61 68.43 67.61 66.61 65.58
42.44 41.35 40.42 40.62 41.01 40.41 39.53 39.02 38.99 38.03 38.37 38.93 37.36 35.22 32.61 35.46 36.80 38.75 39.85 40.80 40.46 41.04 42.71 44.40 43.95 45.35 45.05 46.58 47.80 52.22 53.02 56.65 58.77 60.60 64.48 69.66 69.95 69.59 69.61 68.36 68.07 67.24 66.10
41.85 41.44 40.43 39.79 39.94 39.36 39.05 38.44 38.47 37.97 36.57 37.68 38.11 36.66 32.27 30.77 34.69 36.28 37.49 37.99 38.88 39.50 40.98 42.39 43.88 44.97 44.92 44.89 47.18 47.61 51.10 54.94 57.48 58.87 61.39 64.28 70.49 69.96 69.35 68.72 68.26 67.75 67.09
41.10 41.18 40.29 39.94 39.01 39.13 38.51 38.40 39.81 38.14 37.54 35.59 36.50 39.86 37.93 36.98 33.61 32.62 36.41 37.84 38.67 40.12 41.01 41.61 42.66 43.18 44.00 44.77 47.03 49.26 51.33 53.97 56.29 56.52 59.20 62.95 67.19 70.25 69.73 69.16 68.25 67.75 67.32
39.75 40.36 40.07 39.26 38.78 38.49 38.37 38.59 37.69 37.70 37.39 36.16 35.63 35.77 35.80 36.30 35.86 35.21 34.04 35.52 39.72 39.37 41.10 41.18 41.52 42.51 43.90 44.65 45.06 47.33 51.24 53.02 55.38 55.78 57.29 60.60 62.57 70.26 70.11 69.50 68.39 67.72 67.30
38.52 39.57 39.96 38.87 38.82 38.47 38.43 38.44 37.82 37.39 36.37 36.01 36.06 36.43 36.87 35.64 34.67 34.41 33.27 36.01 36.25 39.22 40.48 41.04 41.26 42.91 44.23 45.32 47.39 50.22 51.35 52.21 53.85 55.45 55.87 58.00 60.63 65.08 70.10 69.54 68.59 67.95 67.46
37.38 38.43 38.69 38.41 38.23 38.42 38.87 38.41 37.74 37.27 36.70 35.82 35.76 36.10 36.79 37.52 38.17 37.51 36.66 36.37 36.15 39.15 39.87 40.87 42.28 43.60 45.30 45.87 46.20 49.27 50.35 51.94 53.59 54.76 54.91 56.98 59.32 62.60 69.00 69.20 69.29 68.09 67.55
38.35 38.96 38.83 38.65 38.69 38.78 38.77 38.29 37.72 37.59 36.98 36.73 36.04 36.27 36.85 37.50 38.29 38.65 37.64 36.47 35.43 37.04 39.00 38.92 42.21 43.70 45.25 45.80 47.66 50.36 48.91 51.76 52.95 54.16 54.85 56.58 57.68 61.02 67.87 68.19 68.54 67.92 67.74
39.89 38.89 38.71 38.41 38.51 38.55 38.53 37.94 37.33 36.96 36.72 36.53 36.53 36.72 36.29 37.73 37.96 38.84 39.35 39.42 37.65 34.38 35.67 39.24 40.11 43.27 44.70 46.50 47.65 47.44 46.70 49.82 52.32 53.73 54.66 56.77 57.32 59.37 67.03 67.56 67.86 67.27 67.09
38.85 38.95 38.43 38.15 38.32 38.09 38.09 37.63 36.67 36.81 36.13 36.62 37.36 36.80 36.88 37.67 38.18 39.21 40.07 40.46 40.33 38.53 35.83 40.37 41.45 43.54 45.27 46.50 47.50 47.44 47.98 50.31 51.61 54.30 55.27 56.06 56.93 57.95 65.96 66.40 66.39 66.19 66.02
38.07 38.33 38.77 38.59 37.99 37.88 37.71 36.33 35.72 36.13 35.86 35.97 36.68 36.77 37.45 38.27 38.30 39.04 39.77 40.34 40.07 40.17 38.44 40.18 42.63 44.81 45.37 45.24 45.80 46.67 47.80 47.44 48.16 52.62 55.12 56.09 56.92 59.07 64.73 64.86 65.06 65.21 65.11
37.92 38.34 38.26 37.88 37.93 37.99 37.13 35.98 35.79 36.60 35.87 35.82 36.68 37.02 37.62 40.28 38.55 39.19 39.66 39.59 40.19 41.03 40.21 39.32 42.56 43.96 45.14 46.47 46.33 46.16 47.05 48.63 50.44 53.21 55.62 56.49 58.01 60.74 63.19 63.53 63.72 63.90 63.44
37.08 37.36 37.54 37.27 37.47 37.48 36.69 36.36 36.30 36.51 36.38 36.47 37.05 37.31 38.23 38.72 38.22 39.16 39.55 39.81 40.64 41.99 41.81 41.92 42.72 44.98 45.45 46.42 46.21 47.54 47.33 47.51 50.58 53.20 56.17 56.99 57.45 62.28 62.60 62.48 62.06 61.49 60.77
36.29 36.27 36.70 37.30 37.44 37.11 37.38 37.41 37.03 36.35 36.49 37.77 38.68 39.26 39.31 39.38 39.28 39.73 40.51 41.03 41.91 42.10 44.06 43.82 42.98 44.19 45.46 47.65 48.14 46.69 46.78 48.78 49.57 53.44 55.99 56.95 61.24 62.93 62.47 62.03 61.11 59.59 58.21
36.51 36.48 36.13 36.22 36.43 37.20 38.60 36.33 36.93 37.23 37.46 38.21 39.55 40.09 41.01 42.75 47.08 45.91 43.32 42.08 42.39 42.20 42.71 43.11 43.07 44.60 44.93 46.35 46.13 47.91 47.42 49.09 50.17 53.01 53.96 57.71 62.78 62.55 62.44 61.80 59.73 58.02 56.93
35.46 35.42 35.11 35.74 35.89 38.52 43.30 45.53 44.40 38.77 39.47 39.10 38.46 38.78 39.54 43.56 42.71 46.94 47.68 47.77 46.30 43.61 43.05 43.69 44.99 44.56 46.35 48.18 48.87 48.45 47.64 47.83 47.19 53.73 51.80 60.63 62.61 61.24 61.65 60.92 59.23 57.35 56.75
34.02 34.25 34.62 35.07 34.80 34.90 43.89 46.02 45.72 39.97 38.85 37.69 36.88 37.36 38.63 41.56 43.29 40.99 44.62 47.27 46.81 48.18 49.32 47.85 46.22 45.94 48.09 49.60 49.47 48.59 48.78 49.50 50.08 54.60 59.39 59.20 61.43 59.94 60.70 58.94 57.23 56.60 56.53
33.83 33.56 34.04 34.25 34.17 36.06 44.43 45.73 45.63 39.12 37.59 37.39 37.55 37.69 37.90 38.86 40.11 42.43 42.92 43.12 44.04 45.55 47.63 47.38 47.84 49.14 50.42 51.93 51.13 50.89 50.64 51.80 52.87 53.41 61.29 57.24 59.83 56.79 57.50 57.26 56.08 55.95 55.74
33.03 33.49 34.38 33.99 33.36 34.21 42.99 44.89 43.81 38.03 37.21 36.98 37.93 38.48 38.75 40.14 44.23 46.21 43.21 43.19 43.79 45.67 48.32 50.93 51.16 51.43 53.56 55.29 53.83 53.03 51.11 51.11 51.18 56.64 59.78 56.67 56.06 54.73 55.48 54.88 55.33 54.84 54.24
34.24 34.82 34.30 33.77 37.67 34.42 41.47 43.75 43.40 38.13 35.89 36.67 37.86 39.51 44.60 43.51 45.79 46.28 43.73 43.61 43.52 43.89 46.90 46.63 46.49 48.55 52.21 54.85 55.53 53.33 53.88 53.08 53.20 55.64 56.36 53.89 54.44 52.21 48.64 52.59 53.53 53.40 52.91

GFSMA_sfc_wetblb_015.txt.gz
Wetbulb
52.47 52.27 51.69 52.06 51.87 51.86 51.38 50.80 50.70 50.46 50.29 49.81 49.95 49.72 50.16 50.54 50.91 52.35 53.51 55.13 56.38 57.51 59.10 60.71 61.72 62.92 64.07 65.30 66.40 68.07 69.89 71.21 70.69 69.88 69.73 69.96 68.79 68.28 67.91 66.79 66.32 65.55 65.21
52.47 52.10 51.45 51.46 51.63 51.81 51.13 50.84 49.86 49.68 49.70 49.42 49.08 49.13 49.57 50.03 50.39 50.06 50.70 51.91 53.24 54.27 55.86 57.65 58.88 59.60 60.76 62.42 63.88 65.30 66.90 68.96 71.12 71.27 70.94 70.27 69.49 68.48 68.15 67.41 66.67 66.57 65.80
52.40 51.76 51.31 50.99 51.44 51.55 50.81 50.57 50.25 49.41 49.17 49.37 48.72 49.00 49.01 49.84 49.66 48.66 50.00 50.87 51.19 51.09 52.72 54.95 56.14 56.83 57.87 59.54 61.58 63.49 64.44 65.51 67.46 70.49 71.04 70.58 69.55 69.07 68.70 67.94 67.80 66.95 65.69
52.09 51.60 51.06 51.05 51.31 51.41 51.41 50.11 49.96 49.07 48.56 48.56 48.69 49.10 48.76 50.34 49.41 48.40 48.96 50.01 50.60 50.24 50.18 52.73 53.74 54.62 55.96 57.00 58.20 60.26 60.96 62.48 64.59 65.91 70.17 70.59 70.51 70.05 69.09 68.48 68.27 67.33 66.24
51.17 51.17 50.94 51.03 51.16 50.58 50.73 49.81 49.38 49.32 48.25 48.12 47.83 48.97 48.42 49.51 49.88 48.91 48.18 49.11 49.87 50.41 49.98 50.51 51.46 51.89 54.21 55.48 56.35 56.90 57.59 59.22 61.54 63.00 64.36 67.68 70.35 70.39 70.11 69.12 68.62 67.81 66.58
50.13 50.63 50.27 50.49 50.55 49.80 49.66 49.38 48.46 49.02 48.48 47.65 47.02 46.86 47.80 49.11 49.93 49.00 48.24 48.40 49.03 49.97 49.83 50.51 50.89 50.70 51.53 53.13 54.20 55.31 56.50 57.77 58.15 59.86 62.17 64.81 68.23 70.33 70.03 69.64 68.90 68.23 67.00
49.66 49.84 49.55 49.57 50.21 49.40 49.17 48.89 48.68 47.95 47.70 47.87 46.46 45.76 47.00 47.61 48.13 48.46 48.66 48.10 48.20 48.94 48.79 49.72 49.95 50.30 50.33 51.35 51.86 53.63 55.84 56.39 56.96 58.13 58.66 62.86 65.31 69.03 70.24 69.91 69.53 68.30 66.95
49.56 48.75 48.99 48.95 49.53 48.67 48.32 47.91 48.17 47.23 47.53 47.53 44.31 44.17 41.72 44.87 46.72 46.61 47.25 47.17 47.12 48.16 47.92 48.71 49.05 49.61 50.12 50.18 50.41 51.48 51.88 54.68 56.60 57.28 58.77 59.22 62.81 65.01 69.67 69.76 69.59 68.47 67.33
49.01 48.64 48.31 48.44 48.64 48.50 47.77 47.59 47.70 47.09 45.50 46.66 45.87 44.48 41.22 39.82 41.93 45.96 45.83 46.59 46.70 46.91 47.42 48.11 48.53 48.99 49.55 49.63 50.11 50.27 50.38 52.61 55.22 56.91 57.84 58.15 59.37 62.78 65.54 69.69 69.74 69.04 67.81
48.01 48.30 47.84 47.83 48.12 47.87 47.36 47.28 47.23 47.11 46.43 44.59 45.74 45.52 46.29 44.92 40.51 39.51 45.11 45.47 46.55 45.84 46.75 47.33 47.93 48.60 49.21 49.25 49.88 50.44 51.09 52.04 53.42 55.53 57.36 58.61 58.70 59.90 63.70 67.01 69.68 69.50 68.82
47.62 47.64 47.40 47.24 47.07 47.37 47.43 47.19 46.62 46.26 46.41 45.57 44.80 44.92 44.58 44.44 44.44 41.81 38.73 42.07 45.03 46.20 46.87 46.83 47.50 48.17 48.77 49.15 49.44 50.04 51.03 52.19 53.25 54.15 55.36 57.42 57.77 58.71 62.14 63.90 69.90 69.29 69.00
46.42 46.89 46.72 47.00 47.23 46.97 46.82 46.93 46.72 46.35 45.99 45.24 45.24 44.59 44.01 42.64 41.92 41.88 40.45 41.08 41.46 44.18 46.18 47.17 47.19 47.74 48.62 49.03 49.48 50.42 51.42 51.95 52.43 53.37 54.13 55.53 57.07 57.76 60.40 63.70 67.84 69.51 69.37
44.97 45.63 46.25 45.93 46.09 46.93 46.90 47.05 46.28 46.20 45.79 44.95 45.10 44.69 44.76 44.40 44.78 43.75 42.15 41.07 40.75 43.57 44.57 46.61 47.14 47.73 48.14 49.05 49.39 50.29 50.79 51.69 52.44 53.05 53.79 54.62 55.90 56.63 58.38 61.11 62.84 69.54 68.90
46.17 46.42 46.09 46.23 46.20 46.33 46.36 46.41 46.15 46.23 45.95 45.43 45.05 44.91 44.67 44.84 44.91 44.23 42.81 41.41 39.83 41.18 43.34 44.04 47.27 47.57 48.27 48.87 49.53 50.63 50.25 51.53 51.78 52.21 52.82 53.96 54.99 55.90 56.99 60.05 61.20 68.04 68.13
45.99 46.06 46.17 45.79 45.78 45.65 45.87 45.90 45.54 45.39 45.55 45.45 44.95 44.91 44.35 44.69 45.05 44.82 44.55 43.76 41.39 38.55 39.85 43.75 43.76 47.69 48.16 48.72 49.49 49.62 49.30 50.74 51.94 52.09 52.22 52.86 53.49 55.51 57.54 59.63 60.56 66.87 67.23
46.31 45.63 45.44 45.55 45.38 45.31 45.41 45.23 45.21 45.38 44.37 44.87 44.46 44.14 44.33 44.63 44.67 44.94 44.73 44.74 44.36 42.20 40.21 43.99 45.11 46.97 47.83 48.05 49.77 49.20 49.46 50.85 51.53 52.25 52.34 51.94 53.11 55.14 58.44 58.61 59.05 65.51 66.17
45.69 45.26 44.93 44.78 44.76 44.67 44.80 44.49 44.60 44.27 43.33 43.85 44.17 43.70 43.74 44.64 44.33 44.88 45.27 45.02 44.37 44.21 42.06 43.89 45.87 47.17 47.07 47.38 48.05 48.47 48.97 49.60 50.48 51.51 52.46 51.90 52.91 54.82 57.00 57.68 58.98 65.13 65.17
45.15 45.17 44.84 44.56 44.36 44.39 44.49 43.82 43.46 43.51 43.33 43.12 43.43 43.66 43.46 44.24 44.72 45.33 45.11 44.70 44.65 45.03 44.04 42.47 44.86 45.85 46.25 46.86 48.95 47.20 47.36 48.99 49.51 50.62 52.14 52.30 52.64 53.94 57.04 56.87 61.45 63.88 63.81
44.53 44.59 44.42 44.01 43.74 43.84 43.70 43.54 43.40 43.42 43.41 43.29 43.37 43.58 43.99 44.47 44.33 44.89 44.78 44.32 44.75 45.02 45.23 44.40 43.10 46.08 47.20 48.69 46.37 47.59 47.75 48.05 49.73 50.89 52.12 53.36 53.70 55.07 57.05 57.70 61.75 61.99 61.91
43.93 43.88 43.98 43.71 43.63 43.62 43.40 43.20 43.12 43.31 43.26 43.40 44.11 44.50 44.70 44.90 44.49 44.26 44.67 45.03 45.07 45.52 45.34 44.70 44.79 45.41 44.63 46.07 46.64 45.72 45.56 48.78 48.05 49.57 52.33 53.08 53.88 56.13 57.07 57.76 61.66 60.76 59.76
43.67 43.61 43.13 43.16 43.44 43.10 42.80 43.32 43.32 43.45 43.65 43.93 44.72 45.27 45.75 45.74 46.95 46.82 45.05 44.95 45.93 44.86 44.42 43.59 44.01 42.98 42.85 44.21 45.24 47.00 47.52 48.41 50.68 50.93 51.87 53.65 54.48 55.02 54.99 60.42 61.22 59.40 58.40
42.70 42.53 42.49 42.43 42.00 42.10 44.59 45.82 44.99 44.75 44.57 44.32 44.48 45.23 44.95 44.97 44.77 46.34 46.90 47.03 46.45 43.02 42.35 43.79 42.33 42.33 44.67 44.92 46.11 48.21 49.12 47.89 46.12 53.27 51.67 52.06 54.62 52.77 57.37 64.17 61.06 58.74 57.67
42.00 41.82 42.01 41.99 41.89 42.80 46.01 46.73 46.66 45.50 44.82 44.93 44.51 43.67 43.17 43.44 44.75 44.27 45.31 46.74 46.72 47.47 47.55 45.28 43.49 44.74 44.39 45.95 47.37 47.34 48.62 48.83 49.31 52.71 51.38 50.40 52.63 53.24 63.01 61.65 58.60 57.53 57.22
41.46 41.32 41.42 41.69 42.15 42.24 45.38 46.65 46.46 45.39 44.82 44.76 44.07 43.76 43.39 43.45 44.15 44.29 44.15 44.01 44.25 45.05 46.47 46.74 46.97 47.28 48.67 49.04 48.89 49.71 50.06 51.41 52.27 54.12 53.08 49.68 56.25 59.39 60.60 59.43 57.03 56.68 56.22
41.11 40.84 41.33 41.15 41.35 41.87 45.38 46.37 45.65 44.71 44.16 43.74 43.80 43.87 44.09 44.20 45.62 46.66 43.93 43.39 44.46 46.07 48.05 48.99 50.52 50.05 50.75 51.73 53.54 51.85 50.43 49.61 48.29 52.97 55.19 56.21 57.80 56.96 57.37 56.77 56.74 55.44 54.64
40.63 40.91 40.48 41.45 42.03 41.94 43.78 45.52 45.33 44.25 42.66 42.64 43.50 43.98 44.79 45.26 46.50 47.09 44.68 45.01 43.85 44.89 45.10 47.01 46.42 47.36 48.89 50.20 54.51 54.64 52.98 49.54 50.92 53.34 57.45 55.32 56.41 54.67 50.25 55.34 55.30 55.45 55.40